NIMBUS 2 DEB, 42435

Orbit data source: Space-Track

NIMBUS 2 DEB, 42435 is space debris in SSO originally from a launch on Sun, 15 May 1966 UTC launched from the Air Force Western Test Range (AFWTR). Debris objects in space refer to the collection of defunct objects orbiting the Earth. Examples of debris include non-operational satellites, rocket bodies, and fragments generated from explosions, collisions, or faulty payload assembly.

Loading next visibility...
Identifier
42435, 1966-040BN
Orbit
SSO
Country
Flag of USUS
Related business
Manufacturer
Unknown
Mission
Spacecraft
Bus & Motor
Unknown
Mass
Unknown
Launch date (UTC)
1966-05-15 (60 years ago)
Launch vehicle
Unknown
Launch site
Air Force Western Test Range (AFWTR)
Object type
Payload
Rocket body
Debris
Shape & HBR
Unknown shape, 0.1 m
Radar Cross Section
Small (<0.1 m²)

Expand to show TLE details & history
Last TLE update: 21 hours ago

TLE from 21 hours ago
0 NIMBUS 2 DEB
1 42435U 66040BN  25348.72521334  .00002082  00000-0  36929-2 0  9996
2 42435 100.1921 147.1896 0056225 257.7938 101.6890 13.43093371450830
Epoch: 2025-12-14T17:24Z
TLE epoch observation values (Epoch: 2025-12-14T17:24:18.432Z)
Latitude
-0°
Longitude
162.47879°
Altitude
1,109.281 km
Speed
7.294 km/s
True Right ascension
09h 48m 45s
True Declination
0° 00' 00"
Sunlit
Object was in daylight at epoch
Visualization orbit readout
Latitude
Unknown
Longitude
Unknown
Altitude
Unknown
Speed
Unknown
Apparent Right ascension
Unknown
Apparent Declination
Unknown
Sunlit
N/A
Visualization observer readout
Local Sidereal Time
13:22:42
Azimuth
Unknown
Elevation
Unknown
Doppler factor
Unknown
Orbital elements
Apogee altitude
1,137.133 km
Perigee altitude
1,053.096 km
Semi-major axis
7,473.252 km
Eccentricity
0.00562
Inclination
100.1921°
RAAN
147.1896°
Arg. of periapsis
257.7938°
True anomaly
102.31902°
Mean anomaly
101.689°
Eccentric anomaly
102.0041°
Mean motion
3.35953 °/min
Orbital period
107.16 mins
BSTAR
0.0036929
Loading maneuver chart data...
Computing Atmospheric mass density...
Loading historical data...
Loading historical data...
Loading historical data...
Loading historical data...
Loading historical data...
Loading historical data...
Loading historical data...

Documentation

Showing up to 5 results
|